Weather in Bannoe

Russia / Voronezh Oblast     50°48′47″N   41°11′03″E
temp.,
°C
wind,
m/s
gust,
m/s
humid.,
%
clouds,
%
prec.,
mm/h
press.,
hPa
HPBL,
m
25 february, thu
thu2500:00−15ssw488994 0.0 1038314
03:00−14ssw5109597 0.4 1036343
06:00−13ssw61194100 0.4 1033413
09:00−11sw71193100 0.6 1031430
12:00−9sw81394100 0.4 1028446
15:00−5sw81393100 1.1 1024453
18:00−3wsw91694100 0.4 1021458
21:000wsw81496100 0.7 1019418
26 february, fri
fri2600:00+1w61298100 0.8 1018296
03:00+1w61299100 1.5 1018320
06:00+2wnw51099100 0.5 1017282
09:00+2w410100100 0.7 1018219
12:00+2w511100100 0.3 1016224
15:00+3w613100100 0.3 1016288
18:00+2w71498100 0.1 1013469
21:00+2wsw61498100 0.4 1012386
27 february, sat
sat2700:00+2w61397100 0.1 1010422
03:00+1w61295100 0.1 1010445
06:00+1w51095100 0.0 1008433
09:00+1w61197100 0.1 1008542
12:00+1w61198100 0.1 1007703
15:00+1w61097100 0.3 1006634
18:000w51098100 0.3 1006488
21:000w51098100 0.6 1006469
28 february, sun
sun2800:000wnw61197100 0.2 1006629
03:00−4nw71086100 0.6 1008642
06:00−8nnw7108498 0.1 1010744
09:00−9nnw7108499 0.1 1013622
12:00−8nnw6982100 0.1 1015626
15:00−8nnw6982100 0.1 1016632
18:00−9nnw61085100 0.0 1017631
21:00−10n6988100 0.1 1020597
1 march, mon
mon100:00−10nnw5789100 0.0 1022533
03:00−11nnw4790100 0.1 1023470
06:00−11nnw479190 0.0 1025407
09:00−10nnw478682 0.0 1026445
12:00−8nnw578073 0.0 1028530
15:00−7nnw577851 0.0 1028541
18:00−8nnw378923 0.0 1029334
21:00−8nw269511 0.0 1030193